Flag for U.S.A. Weather past 2 weeks in Pasadena, Texas, U.S.A.

Now
72 °F

Passing clouds.


Feels Like: 67 °F
Forecast: 75 / 84 °F
Wind: No wind

Location: Houston / Ellington

Current Time: May 25, 2015 at 4:28:14 AM

Latest Report: May 25, 2015 at 3:50 AM


Visibility: 10 mi

Pressure: 29.94 "Hg

Humidity: 94%

Dew point: 70 °F

Location of PasadenaLocation

Historic Weather in Pasadena — Graph

°F

Pasadena temperature yesterday

Maximum temperature yesterday: 81 °F (at 3:50 PM)
Minimum temperature yesterday: 70 °F (at 7:50 AM)
Average temperature yesterday: 76 °F

Past Weeks' High & Low Weather Summary

 TemperatureHumidityPressure
High90 °F (May 21, 11:50 AM)100% (May 11, 10:50 PM)30.17 "Hg (May 11, 10:50 PM)
Low66 °F (May 22, 8:50 AM)66% (May 14, 1:50 PM)29.88 "Hg (May 10, 6:50 PM)
Average78 °F87%30.02 "Hg
* Reported May 10 2:50 AM — May 25 2:50 AM, Pasadena, Weather by CustomWeather, © 2015

Note: Actual official high and low records may vary slightly from our data, if they occured in-between our weather recording intervals... More about our weather records

Advertising

Pasadena weather history for previous 24 hours

 ConditionsComfort  
Time TempWeatherWind HumidityBarometerVisibility
2:50 AM
Mon, May 25
73 °FPassing clouds.3 mph94%29.94 "Hg10 mi
1:50 AM72 °FPassing clouds.3 mph94%29.96 "Hg10 mi
12:50 AM73 °FPassing clouds.5 mph94%29.95 "Hg10 mi
11:50 PM
Sun, May 24
73 °FClear.3 mph94%29.96 "Hg10 mi
10:50 PM75 °FPassing clouds.5 mph83%29.96 "Hg10 mi
9:50 PM75 °FPassing clouds.5 mph83%29.95 "Hg10 mi
8:50 PM77 °FPartly sunny.7 mph79%29.93 "Hg10 mi
7:50 PM77 °FPartly sunny.8 mph79%29.93 "Hg10 mi
6:50 PM79 °FBroken clouds.8 mph79%29.92 "Hg10 mi
5:50 PM79 °FScattered clouds.8 mph79%29.91 "Hg10 mi
4:50 PM81 °FBroken clouds.9 mph74%29.92 "Hg10 mi
3:50 PM81 °FCloudy.9 mph74%29.92 "Hg10 mi
2:50 PM77 °FBroken clouds.10 mph83%29.94 "Hg10 mi
1:50 PM77 °FBroken clouds.7 mph83%29.97 "Hg10 mi
12:50 PM75 °FCloudy.12 mph89%29.98 "Hg10 mi
11:50 AM75 °FBroken clouds.9 mph89%29.98 "Hg10 mi
10:50 AM72 °FBroken clouds.8 mph94%29.99 "Hg8 mi
9:50 AM72 °FMore clouds than sun.8 mph94%29.98 "Hg8 mi
8:50 AM70 °FLight rain. Mostly cloudy.5 mph94%29.98 "Hg5 mi
7:50 AM70 °FThunderstorms. Mostly cloudy.6 mph94%29.98 "Hg5 mi
5:50 AM79 °FPartly cloudy.9 mph94%29.93 "Hg10 mi
4:50 AM79 °FPartly cloudy.9 mph94%29.94 "Hg10 mi
Weather by CustomWeather, © 2015

See weather overviewHow to use our weather pages